Theta_e
340 340 342 346 343 343 343 343 343 341 340 338 339 339 338 337 342 346 346 345 345 344 342 341 342 342 341 342 342 346 347 346 347 346 345 344 345 345 345 344 343 343 343 343 343 343 344 345 345 345 345 345 344 345 346 347 347 347 347 346 346 346 346 346 346 345 344 344 345 344 343 345 343 346 346 346 346 344 341 341 340 337 338 340 343
340 341 342 342 345 343 340 339 339 339 339 339 339 339 338 340 343 346 346 345 343 342 341 340 341 340 341 340 341 342 345 347 346 346 345 344 345 345 345 345 345 345 345 344 343 344 344 344 345 343 343 343 343 343 343 344 345 345 345 345 345 345 345 344 343 343 343 343 344 343 342 345 343 342 346 345 345 343 340 340 340 337 337 342 341
341 341 342 344 346 345 344 343 342 341 340 340 340 341 340 339 344 346 346 345 343 341 341 341 341 340 339 339 343 342 344 346 346 345 344 342 342 342 342 340 340 341 341 342 344 344 344 344 344 344 344 343 342 342 342 342 344 344 344 344 344 343 343 342 342 342 342 342 342 341 340 342 342 342 342 343 344 342 339 341 340 340 337 341 340
340 341 342 344 345 344 342 341 340 340 340 339 338 339 340 340 344 346 346 344 343 341 340 340 341 340 339 340 340 340 345 347 345 344 345 344 344 340 339 338 340 340 340 341 342 342 342 341 342 343 343 343 342 342 342 341 343 343 343 344 344 343 342 342 342 341 341 340 339 338 336 335 336 339 341 344 343 342 339 340 340 340 339 339 338
340 341 342 342 342 344 342 340 340 339 338 338 338 339 340 340 341 345 346 345 342 340 340 342 341 340 341 341 342 342 345 346 345 345 345 345 345 343 341 340 340 340 340 341 340 340 340 340 340 341 341 342 342 342 342 342 342 342 342 342 343 343 341 341 341 340 340 339 339 337 334 334 335 340 343 343 342 338 337 337 337 337 338 337 338
340 341 341 341 341 342 344 343 342 341 340 340 340 340 340 340 344 346 346 346 343 341 340 340 340 340 340 341 342 342 344 345 345 344 344 345 344 344 343 343 343 343 343 343 344 343 343 342 342 341 342 341 341 341 341 341 341 341 341 341 342 342 341 341 341 340 339 338 337 335 335 335 336 335 343 341 340 337 337 337 336 336 336 336 335
340 340 341 341 341 342 343 342 342 341 340 339 339 339 339 340 341 345 346 345 344 342 341 343 343 341 341 341 341 341 343 343 343 344 343 342 342 342 342 342 342 341 341 342 342 344 344 344 344 343 343 342 342 342 341 341 341 341 341 341 342 341 340 340 340 339 338 335 332 331 331 332 333 334 340 340 340 338 337 338 337 337 336 335 336
341 341 341 341 341 342 343 342 342 341 341 339 338 339 339 339 340 341 344 345 344 342 340 341 341 341 341 340 341 340 341 342 342 342 341 340 341 344 344 344 344 342 342 342 343 343 343 343 343 342 343 341 342 341 341 341 340 340 340 341 341 340 341 340 339 338 337 332 330 330 330 330 331 332 338 337 337 338 338 337 337 336 335 334 333
340 341 341 341 342 343 344 343 342 342 342 341 339 339 340 340 341 345 345 345 345 343 341 341 341 340 339 339 339 338 338 340 341 341 341 340 340 342 342 342 343 343 343 343 343 343 343 343 343 342 342 342 341 341 341 341 340 340 341 341 342 341 340 338 337 335 332 330 330 329 329 329 329 330 335 336 336 335 334 332 333 334 333 331 331
340 341 340 341 343 342 343 344 342 342 342 341 341 341 340 340 340 343 344 345 345 344 343 342 341 340 340 338 338 338 340 343 342 341 340 341 340 339 339 340 341 341 341 341 342 342 341 342 342 342 341 341 340 340 340 340 339 339 339 340 339 339 339 338 336 333 330 329 329 329 330 333 329 329 333 335 335 333 331 331 330 330 329 329 329
340 341 340 342 342 342 345 345 343 342 342 341 341 341 341 340 340 341 344 344 344 344 343 342 341 340 339 338 338 337 337 341 342 341 341 340 341 341 340 339 340 340 341 342 342 342 342 342 342 341 341 341 340 339 339 340 340 339 339 340 340 338 337 335 332 328 327 326 326 327 331 333 328 328 334 334 333 332 331 330 329 330 329 329 330
339 341 341 342 344 342 344 344 343 342 341 341 342 342 341 340 340 340 344 344 344 344 344 341 341 340 338 337 336 336 338 340 341 341 341 340 341 341 341 340 340 340 340 340 341 341 341 342 342 341 340 339 338 339 339 339 339 339 338 338 339 338 335 334 329 327 326 326 325 325 325 325 326 328 332 332 333 332 331 331 330 330 329 328 328
340 341 342 342 342 340 343 344 344 342 342 342 341 341 341 340 340 340 343 344 343 344 343 342 341 340 338 337 336 335 336 337 340 340 341 340 340 340 340 340 340 340 340 340 341 341 341 341 341 340 339 339 338 338 338 338 338 338 338 338 337 335 333 331 326 325 325 325 325 325 324 324 325 330 331 332 331 330 329 330 330 329 328 328 328
341 340 340 342 342 344 341 343 343 344 343 341 341 341 341 340 339 339 341 343 342 343 343 342 341 339 338 337 336 335 335 336 337 339 340 339 339 338 338 339 340 340 340 340 340 340 340 340 340 339 339 338 337 337 337 337 337 336 335 335 337 333 330 329 328 324 324 323 324 323 323 325 325 330 331 330 330 329 328 328 328 327 327 327 326
341 340 340 342 342 342 342 340 342 342 342 341 341 342 342 340 340 340 340 341 342 342 342 341 341 339 338 337 336 335 335 339 338 337 338 338 338 337 337 338 338 338 338 339 339 339 339 340 339 339 338 337 337 336 336 336 335 334 335 335 334 331 329 325 324 323 324 324 323 322 321 322 328 329 329 330 329 328 328 327 327 327 326 325 325
342 342 341 341 342 342 341 342 339 340 340 342 341 342 341 340 340 340 339 340 341 341 341 341 340 339 338 337 337 338 339 339 339 339 339 338 337 337 337 338 338 338 338 338 338 338 338 338 338 338 337 337 336 335 334 334 333 333 335 333 332 329 327 325 322 321 320 320 321 322 321 323 329 329 328 329 328 328 327 326 326 325 325 325 324
341 341 340 339 341 341 341 341 338 335 336 338 338 339 340 341 341 339 340 341 341 341 341 341 339 338 339 340 338 338 338 340 341 339 339 338 337 336 336 336 335 336 337 337 338 338 337 337 337 337 337 336 336 334 333 333 333 334 332 330 329 327 324 321 319 319 321 323 323 322 321 323 326 327 327 328 327 326 325 325 325 324 322 324 325
341 341 340 340 339 339 341 340 338 339 338 335 334 336 339 340 340 340 341 341 342 342 341 341 339 338 337 336 336 336 337 338 339 338 338 338 337 336 335 335 335 335 336 337 337 337 337 337 337 336 336 335 334 333 332 332 332 331 330 329 328 326 324 322 320 321 322 323 321 322 321 329 327 326 327 327 327 325 326 325 324 322 325 325 324
338 339 340 340 339 339 340 341 340 339 339 338 337 335 334 336 337 338 338 339 338 337 337 336 335 334 333 332 332 331 331 333 334 334 334 334 333 331 334 335 334 334 336 337 337 336 336 336 336 335 335 334 333 331 331 331 332 330 329 328 326 324 323 322 321 320 320 319 320 319 322 328 326 327 326 326 325 326 327 324 321 327 325 325 325
337 337 339 339 340 339 340 340 340 339 338 337 338 336 331 332 334 334 334 334 333 333 332 331 328 327 327 327 327 328 328 328 328 328 329 331 331 329 332 335 334 334 335 335 335 335 335 336 335 335 334 333 332 331 331 331 332 330 329 327 323 321 322 322 320 319 319 320 321 321 329 329 327 326 326 325 323 327 326 323 324 324 323 323 322
338 336 336 337 339 340 340 340 339 339 339 338 337 337 331 329 329 328 329 329 329 328 327 324 321 321 322 323 324 327 327 328 329 328 325 326 323 326 330 334 334 333 333 333 334 334 335 335 334 333 331 330 327 327 326 328 329 329 328 325 319 323 323 322 320 319 320 320 321 324 327 327 325 325 324 323 324 327 325 323 321 322 322 321 321
334 334 335 336 337 339 340 340 339 340 340 340 338 337 333 333 331 329 328 326 325 324 326 327 330 325 323 324 327 326 325 326 329 331 328 327 325 324 326 330 332 332 332 332 333 333 333 333 332 332 330 329 326 323 321 322 324 325 322 318 322 322 322 321 321 319 318 319 321 325 329 326 325 326 324 324 324 326 324 321 321 321 321 322 321
330 332 334 335 335 338 340 339 339 340 340 340 339 336 335 334 333 332 330 327 327 328 329 329 329 328 326 327 326 325 327 327 329 327 325 321 324 323 325 327 329 329 329 329 329 329 329 329 329 329 329 328 322 322 321 321 320 320 319 321 322 322 322 322 320 319 317 318 319 326 329 324 327 326 323 322 323 324 322 321 321 321 321 320 320
330 331 333 336 336 335 336 338 339 340 339 339 338 335 334 334 332 332 330 330 329 330 330 329 329 328 329 328 324 327 327 325 325 326 326 324 322 321 322 322 324 324 324 324 326 326 327 326 325 326 324 322 322 322 322 321 320 321 321 323 322 320 321 322 321 319 317 320 320 325 328 326 325 324 324 323 322 324 322 320 319 319 319 319 318
331 332 332 334 335 335 336 336 338 340 339 338 337 335 335 335 334 332 331 330 329 330 329 331 330 329 328 327 324 325 327 327 327 327 327 326 324 323 323 323 323 321 322 322 321 319 320 319 318 319 320 321 322 322 324 323 323 323 322 322 322 320 321 320 320 319 318 318 317 322 325 325 323 323 323 322 321 322 321 319 319 319 318 317 318
331 330 331 333 334 336 335 335 337 338 339 338 338 336 336 335 333 333 331 331 330 330 330 330 329 328 327 325 324 323 324 325 324 325 325 326 325 325 325 324 323 323 323 320 320 318 317 318 318 319 321 323 321 323 323 321 320 321 322 322 321 321 320 319 318 317 317 316 317 322 324 327 323 322 322 321 321 321 321 320 320 319 318 317 316
329 329 332 333 334 335 336 335 335 336 337 338 338 336 335 336 334 333 332 331 331 330 330 329 329 328 328 325 323 322 322 323 323 323 323 324 323 324 324 323 323 322 322 320 319 319 319 319 319 320 321 321 320 321 321 321 320 320 321 319 319 320 319 320 320 319 317 317 317 320 323 326 322 322 321 322 321 322 320 319 320 318 318 318 317
328 330 330 332 333 334 336 335 335 335 336 337 337 336 335 336 334 329 333 330 331 330 329 329 330 329 328 325 324 323 321 322 323 323 322 322 321 321 322 320 321 319 321 320 319 317 318 318 320 320 318 318 318 318 318 318 319 318 317 316 316 317 317 318 320 320 317 317 318 317 321 323 325 322 322 321 319 320 321 319 319 319 318 318 316
328 329 330 331 333 334 335 335 335 334 336 336 335 336 335 335 333 332 331 329 332 331 331 331 330 328 327 326 325 323 322 321 322 322 321 320 321 320 320 319 320 319 320 318 319 317 317 317 317 317 316 317 318 317 318 318 317 316 316 315 315 315 316 318 319 318 316 315 317 316 318 319 324 325 321 321 321 322 321 319 318 319 317 316 315
329 330 330 330 333 334 334 335 335 334 335 336 334 335 335 335 334 333 330 329 331 332 331 330 329 329 327 327 326 325 322 321 320 320 320 320 320 320 319 320 318 319 319 319 319 317 316 316 316 316 317 317 318 319 316 316 317 315 314 314 314 315 314 315 317 317 316 316 316 315 316 319 321 325 322 320 321 322 322 319 319 318 317 317 315
329 329 330 331 332 333 334 335 335 333 334 334 333 334 335 335 334 333 332 330 329 331 331 330 330 329 328 327 326 326 324 322 321 320 320 319 319 319 318 318 318 318 319 318 319 318 317 317 317 317 317 316 317 317 316 314 313 311 309 310 310 309 310 311 314 315 316 315 316 315 315 316 319 321 323 322 320 320 322 319 319 319 318 317 316
328 329 329 331 331 333 334 334 335 334 333 334 334 334 335 335 334 333 333 332 331 330 331 330 328 330 329 327 327 326 325 323 322 321 319 319 319 319 318 318 317 317 318 317 316 317 316 316 317 316 316 315 315 314 315 314 311 309 308 308 308 307 307 309 311 312 312 313 314 315 316 316 315 317 320 323 320 319 322 320 319 320 317 317 317
329 330 330 330 330 332 334 334 335 334 333 333 334 334 335 336 335 334 334 333 331 331 330 329 329 328 328 328 327 326 325 324 323 322 320 318 318 318 317 317 318 318 317 316 315 315 315 315 314 314 314 315 314 313 314 312 310 308 308 307 305 304 305 306 307 310 310 312 314 316 317 317 315 314 315 316 320 322 320 323 318 319 318 317 319
328 328 330 330 331 332 333 334 335 334 334 334 334 333 334 335 335 335 333 333 332 331 330 329 328 328 329 328 328 327 325 324 323 322 320 318 318 318 317 317 317 317 317 316 315 315 313 312 312 312 312 312 311 311 310 309 307 306 303 302 302 301 302 305 305 306 308 310 311 313 314 316 315 314 314 314 316 317 321 320 319 320 319 318 318
328 328 329 330 330 331 331 332 331 334 333 334 333 334 334 334 335 335 334 333 333 331 330 329 328 329 329 328 328 327 326 325 324 323 321 319 318 317 317 316 318 316 315 315 315 314 313 313 311 311 310 310 311 310 311 309 306 306 304 303 302 301 302 303 304 304 305 305 307 308 309 311 316 315 315 314 311 313 317 320 324 319 320 320 318
328 328 329 330 330 330 330 330 330 330 333 333 332 332 333 333 333 331 334 334 332 332 331 330 329 329 328 328 329 328 326 325 324 324 321 321 318 317 317 317 316 316 315 314 315 314 314 313 313 313 311 309 311 310 311 310 306 304 303 302 299 299 300 301 302 302 302 303 305 307 308 308 310 311 312 314 313 312 314 317 320 322 320 320 320
328 327 328 329 329 330 329 330 330 330 332 332 331 331 332 332 332 331 334 334 332 332 330 330 330 329 330 330 330 328 326 326 325 324 323 322 319 318 317 317 316 315 314 313 313 313 314 313 311 312 312 310 311 309 309 306 305 301 299 299 298 298 298 297 298 299 301 302 304 304 306 306 305 305 306 307 310 312 312 313 316 320 319 323 319
327 327 328 329 329 330 329 329 331 332 330 331 330 329 330 331 331 331 332 333 332 330 331 329 329 328 329 329 329 328 327 326 326 325 323 322 320 318 317 317 316 314 313 312 312 313 313 313 311 310 311 312 311 310 308 303 302 301 299 300 299 297 296 295 295 297 299 299 301 302 301 301 302 302 303 304 305 306 309 311 313 314 313 315 320
327 327 328 328 328 329 329 328 328 329 328 330 330 329 329 329 329 329 332 332 331 331 331 330 329 331 331 331 329 328 326 327 327 326 324 322 320 319 319 317 316 313 312 311 312 312 310 311 311 308 308 306 308 309 307 303 302 300 299 298 297 296 295 296 296 296 297 297 298 299 299 300 300 300 300 301 302 303 306 308 309 310 310 312 317
327 327 327 328 328 327 328 328 328 329 327 327 328 327 325 325 325 325 326 330 332 329 330 330 330 331 331 329 327 326 325 326 327 327 325 322 319 318 315 314 313 313 311 309 309 308 308 309 310 309 307 303 305 305 304 303 300 299 298 297 296 296 295 295 295 296 296 296 297 297 297 298 297 298 299 299 300 302 303 306 308 309 310 310 313
325 326 327 327 327 327 327 326 328 328 328 327 327 326 325 324 324 325 324 324 328 330 330 330 329 328 326 327 326 326 326 325 326 327 325 321 321 318 314 312 311 310 309 309 308 307 308 309 309 309 306 303 301 301 302 302 300 300 298 297 297 296 295 295 295 295 295 296 296 296 296 295 296 296 298 299 299 300 301 302 303 305 307 308 309
321 324 325 326 326 326 326 327 327 327 327 328 328 328 328 327 326 325 322 323 325 327 330 331 331 330 329 327 326 327 328 327 326 327 325 322 320 317 314 311 309 309 309 309 307 306 307 306 307 306 305 304 303 302 301 303 300 301 301 300 299 297 296 296 295 295 295 295 294 294 295 295 296 297 298 298 298 298 299 299 300 301 302 305 307
321 322 323 324 325 325 326 326 326 326 326 327 327 328 328 328 328 325 326 322 324 327 329 328 329 330 330 330 330 330 330 329 327 325 325 323 321 318 315 312 310 309 309 308 306 306 307 306 306 305 302 304 305 303 302 305 303 301 301 299 298 298 299 294 295 295 296 295 294 293 294 294 295 296 297 296 296 297 298 298 299 299 300 301 304
319 320 321 322 325 324 324 325 325 325 326 325 323 326 327 326 327 326 326 326 324 322 326 328 328 327 328 330 329 329 329 328 327 325 325 324 322 320 317 313 310 309 310 309 308 308 308 306 306 306 306 301 302 301 301 302 304 302 298 299 296 295 295 299 299 298 296 295 294 293 293 294 295 295 296 295 296 296 296 297 297 298 298 300 301
318 319 320 321 323 323 324 324 324 325 325 323 323 323 323 321 321 322 323 324 321 321 320 320 325 326 327 327 328 328 327 327 327 326 324 324 323 322 319 315 313 312 311 311 310 309 309 308 306 305 305 306 304 302 300 300 302 306 305 296 294 293 295 298 297 298 292 294 294 294 294 294 294 295 294 294 295 296 296 296 296 296 297 298 299
316 318 320 321 321 322 323 323 323 323 323 323 323 323 322 321 320 319 318 318 319 320 322 322 322 323 324 326 327 327 327 327 327 326 325 324 323 322 321 318 315 313 312 312 311 310 309 308 307 307 306 307 307 304 300 299 300 302 305 306 305 304 299 297 298 295 293 295 296 295 294 294 294 294 293 294 294 295 295 295 296 295 296 296 297
312 315 318 319 320 320 322 323 322 322 322 322 323 321 321 321 321 320 319 319 319 320 319 320 323 321 323 323 325 326 327 327 326 326 326 324 323 323 321 320 318 315 311 311 311 310 309 308 308 307 307 307 306 305 305 300 298 299 301 303 303 295 296 299 298 297 295 294 292 293 294 294 294 293 293 293 294 295 295 294 294 295 295 295 295
307 310 314 317 318 319 320 322 322 320 321 321 322 321 321 320 319 319 318 318 318 317 318 319 321 322 323 324 324 324 325 325 324 324 325 324 322 323 322 321 319 317 312 311 311 311 310 309 308 308 308 308 307 306 306 303 298 299 299 299 300 302 297 295 295 297 296 294 297 293 293 293 292 292 292 293 294 294 294 294 294 294 295 295 295
306 308 311 314 316 318 318 320 321 320 320 320 320 320 319 319 318 317 316 317 317 316 315 317 317 318 319 321 322 322 323 323 323 323 323 323 320 321 321 320 319 317 312 312 311 311 310 310 309 308 307 307 307 306 306 305 302 302 297 297 299 299 299 297 295 293 292 291 295 297 297 290 290 291 291 292 293 293 294 295 295 295 294 295 295
306 307 307 309 312 315 317 319 319 319 320 319 319 318 317 317 317 316 316 315 315 315 315 316 315 315 316 318 321 321 321 322 323 323 322 322 321 320 320 319 318 317 311 312 311 310 310 310 310 309 307 306 306 305 305 305 306 304 302 299 297 297 297 296 294 292 291 293 293 295 298 297 294 295 291 291 292 292 293 294 294 294 294 295 295
304 305 306 308 310 313 315 317 318 318 318 318 318 317 317 317 317 316 316 315 315 315 315 315 317 316 317 318 320 322 321 321 322 321 322 322 321 320 320 319 318 316 313 312 311 310 310 309 309 308 307 306 305 305 304 304 305 305 304 302 299 299 298 296 296 294 294 291 289 291 293 295 295 296 297 292 292 292 292 292 293 293 294 295 295
Wind_Speed
7 9 6 10 12 12 12 12 12 11 11 11 12 11 11 9 13 15 14 14 14 14 13 12 16 16 16 15 14 17 18 18 17 19 18 18 18 19 19 20 19 19 19 18 18 17 18 18 19 20 20 21 21 21 22 22 23 22 22 22 23 23 22 23 23 23 24 24 24 23 22 22 21 22 23 23 23 22 20 21 18 14 12 17 23
10 8 6 7 11 12 12 12 12 11 11 12 12 11 11 12 13 13 13 14 14 13 13 14 16 15 14 13 14 15 18 18 18 18 17 18 19 19 19 19 19 19 19 19 18 18 18 18 18 19 20 20 20 20 21 22 22 21 20 21 20 20 20 21 21 21 21 21 23 24 24 24 22 20 24 24 24 23 21 20 19 12 10 22 22
9 8 7 7 10 11 11 12 12 11 11 11 10 11 10 9 11 11 12 13 13 12 12 16 16 15 15 14 16 15 16 17 17 18 18 17 16 17 19 18 19 19 19 19 18 19 18 18 18 18 18 19 19 20 21 20 20 20 20 20 18 18 19 19 21 21 20 21 21 21 20 22 22 22 24 23 25 24 22 23 22 20 14 24 21
10 8 7 8 10 11 12 12 11 12 11 11 10 10 11 11 12 12 12 13 13 13 12 15 16 15 15 15 15 15 18 18 17 17 19 18 17 17 17 17 18 18 18 17 18 18 17 18 18 18 19 19 20 20 20 20 19 19 18 18 17 19 19 19 20 19 19 18 19 16 10 10 14 21 22 24 25 24 21 23 24 24 24 22 24
10 9 8 7 7 9 12 12 12 12 11 11 11 11 9 8 9 13 13 11 13 12 13 17 15 15 15 16 15 15 17 17 18 18 18 18 17 17 18 17 18 18 18 18 18 18 18 18 18 19 19 19 20 19 20 20 20 18 18 18 17 17 20 20 19 19 20 20 17 13 9 10 9 17 22 25 23 21 21 22 21 22 22 23 24
10 9 8 7 7 7 11 12 11 11 11 10 9 9 8 8 13 15 13 10 11 13 14 14 15 15 15 15 14 14 16 16 17 18 17 17 16 17 18 17 16 17 18 18 18 18 18 19 19 19 19 19 19 19 19 19 19 18 19 19 20 19 19 17 16 18 19 18 15 9 9 9 8 8 22 23 21 19 21 20 20 19 20 20 19
11 8 8 8 6 7 10 12 12 11 11 10 10 10 10 12 12 14 13 11 9 12 13 16 15 15 14 13 14 15 16 17 16 17 18 18 18 17 16 16 16 16 17 17 17 18 18 18 18 18 19 19 19 19 18 17 17 18 17 17 17 19 19 17 16 16 15 10 7 8 8 9 8 7 22 20 21 21 21 20 20 20 19 18 20
8 8 8 7 6 8 11 12 12 12 11 10 10 10 11 11 10 12 13 11 9 10 12 14 14 14 14 14 13 14 16 15 16 17 17 16 17 18 17 15 16 17 17 17 17 17 17 17 18 18 18 18 18 19 18 17 18 18 17 16 15 16 16 18 18 17 15 9 9 8 8 8 8 8 19 20 20 20 19 20 20 20 19 20 16
8 9 9 8 7 11 11 11 12 12 11 11 10 10 11 10 11 14 12 12 10 10 11 13 15 14 14 13 12 13 14 14 14 16 15 15 15 15 15 16 16 17 17 16 16 17 17 17 18 18 18 18 17 17 16 16 17 16 16 15 15 16 18 18 17 16 11 9 9 8 9 8 8 9 18 21 21 21 20 16 17 20 19 18 20
9 10 10 7 7 11 11 11 12 12 12 10 10 10 10 11 9 13 13 12 11 10 10 13 13 13 14 14 13 13 15 15 15 15 15 15 14 14 15 15 15 15 15 15 16 16 16 17 17 17 17 17 17 15 15 16 17 17 17 17 18 19 17 16 14 12 9 10 10 10 9 10 8 9 16 20 21 21 20 17 14 13 14 19 19
11 10 9 8 9 11 11 12 11 11 12 11 10 10 10 9 11 12 13 12 12 11 10 13 13 14 14 13 13 12 12 14 14 14 13 14 14 14 14 15 15 15 15 15 15 16 16 16 17 16 16 16 15 14 15 15 15 16 15 15 15 17 16 16 13 9 10 10 9 8 9 12 7 8 18 19 20 20 17 19 18 17 19 19 18
11 11 9 7 10 11 11 11 11 11 11 11 10 10 9 10 10 11 13 12 11 11 11 11 14 13 14 13 12 12 12 13 13 13 14 14 14 14 14 14 14 14 14 14 15 15 15 16 16 16 16 15 13 13 13 14 14 14 15 15 14 14 15 14 9 7 9 10 10 9 9 9 8 11 19 18 19 20 19 19 19 19 18 17 17
11 10 9 7 7 10 11 11 10 11 11 11 10 10 9 9 9 10 13 12 11 11 11 12 13 13 12 12 11 11 12 13 13 13 14 13 14 14 14 14 13 13 13 14 14 14 14 15 15 15 15 14 13 12 12 13 12 13 13 13 13 14 13 13 9 9 8 8 7 7 7 6 7 15 16 17 17 17 18 17 17 17 18 18 16
12 10 9 7 6 11 11 10 9 9 10 11 11 9 9 10 9 9 12 13 12 11 11 12 13 12 12 11 11 10 11 11 13 13 13 13 13 13 13 12 13 13 13 13 13 13 13 14 14 15 15 14 12 11 11 11 13 14 12 11 8 6 10 9 9 8 9 8 7 8 6 5 6 15 15 16 16 16 17 16 16 17 16 16 16
12 10 9 8 7 7 11 10 9 9 9 10 10 9 9 9 9 9 10 11 11 11 11 11 12 12 11 11 10 10 11 12 10 12 12 12 12 12 12 12 12 12 12 12 12 12 13 13 14 14 13 13 11 11 11 12 13 12 11 9 9 14 12 9 8 7 7 6 5 5 4 3 12 14 15 16 16 16 16 15 16 16 15 16 16
9 9 10 8 8 7 6 10 10 9 9 9 8 9 9 8 9 9 9 10 11 11 11 11 11 11 11 10 10 11 11 11 9 10 10 11 12 12 12 12 12 12 12 12 12 12 12 13 13 12 12 12 11 10 11 11 12 10 8 10 12 11 11 8 6 6 7 6 5 5 5 6 15 14 14 15 15 14 15 15 16 15 15 15 15
7 9 10 9 8 7 7 6 7 11 10 9 8 9 8 7 8 9 9 8 10 11 11 11 11 11 11 11 11 11 11 10 11 13 12 12 12 11 11 11 11 11 11 12 12 12 12 12 12 12 12 12 10 10 10 10 10 7 10 13 14 14 14 11 6 7 6 6 6 6 6 6 11 13 13 12 14 15 14 14 14 14 12 16 17
5 6 9 9 8 7 7 7 8 7 6 8 9 9 8 8 7 8 9 9 8 9 9 9 10 10 10 9 9 9 10 10 11 12 11 10 10 10 11 11 11 11 11 11 11 11 11 11 12 12 12 11 10 10 9 8 7 8 11 13 12 11 10 9 5 6 6 7 6 4 3 6 14 11 11 14 13 10 13 15 15 10 16 16 15
5 6 8 9 9 8 8 7 6 6 7 5 5 7 9 9 9 9 9 8 8 10 10 10 9 10 9 9 9 10 10 11 10 10 11 11 11 10 10 9 9 11 12 11 11 11 10 11 12 13 12 11 10 9 8 7 6 8 10 10 10 8 8 6 5 6 7 6 5 3 4 10 9 14 13 12 11 14 16 13 10 18 16 15 14
4 4 7 7 8 8 8 7 6 7 6 6 5 5 8 10 9 10 10 9 9 9 9 9 9 9 9 9 9 7 7 8 11 8 10 10 10 8 9 9 9 10 11 10 10 10 10 11 13 13 12 11 9 8 6 6 7 7 8 8 7 6 6 5 4 5 6 6 5 3 4 10 12 10 12 13 9 14 15 11 14 16 14 13 13
3 4 5 5 7 8 8 8 7 8 7 8 6 6 7 10 8 9 10 10 9 9 9 9 8 7 7 7 6 4 5 5 6 5 8 7 10 11 10 10 10 9 9 10 9 9 11 12 11 10 10 10 8 7 7 6 6 6 6 7 8 4 7 6 5 6 5 5 4 4 13 10 10 12 11 9 13 14 13 11 11 12 12 12 13
5 4 4 5 6 8 8 8 6 9 6 6 6 6 6 7 7 6 5 6 7 8 7 5 5 3 5 5 4 5 5 3 6 7 6 7 8 12 11 11 12 12 12 12 10 11 11 11 9 8 8 8 5 3 3 4 5 5 6 6 3 6 5 6 5 6 4 4 4 5 9 12 9 10 11 12 11 14 12 10 10 11 12 13 12
6 6 5 5 5 7 8 8 7 8 7 6 6 6 6 5 6 6 5 6 6 6 5 5 4 4 3 4 4 4 4 4 5 7 7 9 9 11 12 11 11 11 11 12 11 11 11 10 8 5 3 3 0 2 1 1 3 5 4 4 0 6 4 5 4 4 4 4 2 4 9 7 13 14 13 9 10 12 11 10 11 12 10 11 11
7 5 6 5 6 5 6 7 9 9 7 6 7 7 6 6 6 5 5 5 5 5 5 5 5 5 5 5 3 7 6 5 10 13 10 6 7 10 12 12 11 11 11 7 7 7 8 7 4 4 2 2 2 2 3 1 2 4 4 2 4 4 4 4 4 4 5 4 2 3 6 10 10 10 9 10 8 13 11 9 8 10 9 9 9
6 6 5 6 6 5 5 5 8 8 8 7 7 7 6 7 6 7 6 6 5 5 6 4 5 5 4 1 5 5 6 6 6 6 6 6 5 5 5 5 5 4 7 4 4 2 2 2 1 2 3 3 3 2 4 3 2 4 5 1 3 3 1 3 5 5 5 5 3 3 3 3 8 7 9 9 8 11 12 9 9 9 9 8 9
6 6 6 6 6 6 6 4 7 7 8 8 7 7 7 6 6 6 7 7 6 5 6 4 4 3 2 3 5 4 6 5 4 4 6 6 6 5 5 5 5 4 4 3 5 3 2 3 2 3 4 4 3 3 3 3 3 5 4 1 1 2 3 4 5 6 6 4 3 3 6 3 5 5 8 5 6 10 10 8 10 9 8 7 5
7 7 7 6 7 6 6 5 5 6 7 8 7 7 5 5 6 6 6 6 6 4 5 5 5 4 3 4 5 3 6 6 5 5 4 7 7 6 6 6 5 5 4 4 5 4 5 4 3 3 4 5 2 1 0 1 3 3 0 3 5 4 4 3 5 5 6 5 3 1 5 3 5 7 6 7 7 9 9 6 9 7 7 8 8
7 8 7 7 8 8 7 6 5 5 5 6 6 7 5 6 5 6 5 5 5 4 4 5 6 6 3 4 4 5 4 6 5 4 3 5 5 5 6 6 6 5 6 4 5 4 1 5 4 5 2 1 1 1 1 2 3 1 3 3 3 3 3 2 2 4 5 6 5 4 2 2 3 6 7 6 4 5 8 7 8 8 8 7 6
8 8 7 7 8 7 8 8 6 6 6 5 5 6 5 6 6 6 4 6 5 5 4 3 6 6 3 5 4 6 4 5 4 4 3 3 4 3 3 4 4 3 4 4 5 4 2 2 2 1 2 0 0 1 1 1 1 1 3 3 1 1 1 2 1 3 4 5 4 3 4 2 2 4 6 5 8 8 8 7 5 7 4 6 5
7 8 7 5 7 7 9 9 8 7 7 6 5 6 6 6 6 6 4 6 4 4 3 3 4 5 6 3 5 4 5 5 5 4 4 3 3 4 3 4 3 3 4 4 5 5 4 3 3 1 2 3 3 4 3 1 2 1 3 4 1 0 1 2 2 1 5 5 4 3 4 2 1 5 6 3 7 11 10 6 7 5 7 6 6
8 8 8 6 6 9 7 9 8 6 6 6 5 6 6 6 6 6 5 5 5 5 4 5 4 4 5 4 3 3 3 5 6 4 4 3 3 3 2 3 4 3 5 4 6 5 5 5 4 5 5 4 4 4 3 3 1 3 3 3 1 1 2 2 2 4 1 2 6 5 3 3 1 4 4 7 6 8 9 7 8 8 7 7 6
9 9 8 7 6 9 9 7 8 6 5 6 6 6 7 7 6 5 5 6 4 4 5 5 6 5 5 7 5 6 4 5 7 5 4 4 4 4 4 3 4 3 4 4 4 4 4 4 4 3 2 2 1 3 3 2 3 3 3 2 1 2 2 3 3 3 2 2 3 4 4 3 3 3 5 4 7 7 10 8 8 11 6 7 7
5 8 9 9 8 9 9 9 8 7 6 5 6 5 6 7 8 7 6 7 6 5 6 6 6 4 4 7 6 5 5 4 6 7 5 4 5 5 5 4 4 4 4 4 4 4 2 2 3 1 0 1 2 3 1 1 4 4 3 1 1 1 2 1 1 2 2 3 1 4 4 4 3 4 4 4 5 6 10 14 9 11 9 8 10
6 6 8 10 8 6 7 7 9 9 10 6 5 5 5 6 8 7 6 7 7 6 6 6 6 6 5 5 6 5 5 5 4 5 6 5 5 5 5 5 5 4 4 4 4 4 3 3 3 2 1 1 2 3 3 1 4 4 3 1 2 2 2 2 2 2 1 2 3 1 2 5 5 5 3 5 6 5 9 12 11 13 11 11 9
6 6 8 9 9 8 7 6 9 9 10 9 7 7 5 6 7 7 7 7 7 6 6 6 7 7 6 6 6 5 5 5 4 6 5 5 5 5 5 5 5 4 5 4 5 3 3 4 4 4 2 2 2 3 4 3 3 4 3 3 2 1 0 1 1 2 2 3 3 3 4 3 5 5 5 5 6 7 6 5 7 11 14 12 11
8 7 7 8 9 8 8 6 6 7 10 10 7 6 6 6 6 7 7 8 7 7 6 6 7 7 6 6 7 6 6 5 4 5 6 6 6 6 6 5 5 5 5 5 5 5 5 4 4 5 4 4 4 3 4 4 4 3 2 2 1 1 0 1 2 2 2 2 2 2 2 4 4 3 5 6 6 6 8 6 4 6 14 15 15
8 7 7 7 9 9 10 9 9 8 9 10 8 6 6 6 6 6 8 8 7 6 4 4 6 6 6 6 7 7 5 6 5 5 6 6 6 6 6 5 4 5 5 5 5 4 5 4 4 5 4 5 5 4 4 3 4 3 2 2 1 0 1 1 1 2 3 3 3 3 2 2 2 4 5 3 2 5 8 9 6 6 6 10 16
8 8 7 8 9 9 9 9 9 11 8 10 9 7 6 6 6 6 7 8 7 6 5 4 5 5 5 5 6 7 6 6 6 6 6 6 6 5 5 6 6 6 5 4 6 4 4 5 4 3 3 2 5 5 4 4 3 3 2 1 1 1 0 1 1 1 1 3 4 4 4 3 3 3 4 4 4 4 3 8 9 6 7 9 12
8 9 8 8 7 7 8 9 7 9 8 9 9 8 6 5 5 5 7 7 7 6 6 6 6 5 5 5 6 7 7 6 6 6 6 6 6 6 6 6 6 6 6 5 5 4 3 3 5 3 2 2 1 1 3 4 3 2 1 1 1 2 1 1 2 3 2 2 4 4 4 5 4 4 4 4 4 4 4 5 5 5 6 7 9
8 9 8 9 9 7 8 8 7 7 5 5 7 8 7 7 6 5 5 7 8 7 6 7 7 7 6 6 6 7 7 6 6 5 6 6 5 5 4 5 6 6 6 6 5 5 6 4 4 4 4 2 2 3 4 5 3 1 1 2 3 3 3 2 3 4 3 4 5 3 5 5 5 5 4 4 4 4 5 4 4 5 4 6 9
7 8 9 9 10 9 10 11 10 8 8 7 6 7 8 7 5 7 7 6 7 8 7 6 6 6 5 5 5 5 5 6 6 5 6 6 5 5 6 5 6 6 7 8 6 5 5 5 4 3 5 4 3 2 2 4 3 2 2 4 5 5 5 4 6 5 6 6 5 5 5 5 5 5 5 3 4 4 4 5 5 4 3 5 6
8 8 10 10 10 9 10 10 10 10 10 10 9 8 8 9 9 8 5 5 6 7 7 7 7 6 6 5 5 5 5 6 6 5 5 6 5 5 6 7 6 6 5 4 4 4 4 4 4 3 3 6 5 5 4 5 1 6 5 4 4 4 8 7 7 8 8 7 6 6 6 6 7 6 4 4 5 5 5 5 5 5 4 4 5
12 12 11 10 10 11 10 9 10 11 10 10 9 10 8 7 8 6 7 4 3 5 7 7 8 8 8 7 6 6 7 7 7 7 7 6 7 6 7 6 6 6 5 5 5 5 5 6 6 6 4 3 3 4 7 8 5 2 1 2 4 4 0 2 5 9 9 8 6 7 7 7 9 6 5 5 5 5 5 5 5 6 5 5 5
10 9 10 12 11 10 10 10 10 10 10 10 10 9 9 7 7 7 6 6 6 3 5 8 8 9 9 9 7 7 7 7 7 8 7 7 7 7 6 6 7 7 7 7 6 7 6 6 7 7 5 3 4 5 5 6 5 6 2 6 2 1 7 5 6 5 8 10 9 10 7 8 8 7 5 7 7 6 6 5 7 6 6 6 6
11 12 12 12 10 13 12 12 10 11 10 10 9 7 8 6 6 5 6 6 2 4 3 4 8 8 7 8 8 7 7 7 6 7 8 8 7 7 7 7 7 7 7 7 7 8 8 7 7 7 8 8 6 5 4 6 7 7 6 2 1 2 6 4 1 4 2 4 8 8 7 8 8 8 6 8 6 6 6 6 7 6 7 7 7
11 11 12 12 11 11 11 10 9 9 10 10 10 7 8 8 8 8 8 8 8 8 11 11 8 9 9 6 7 8 7 6 6 7 7 7 7 7 7 7 7 7 7 7 7 6 6 7 8 8 8 8 7 6 5 4 8 9 9 8 3 7 2 1 2 4 0 6 3 5 8 8 8 7 7 7 8 8 6 8 7 8 7 7 7
10 8 9 10 10 9 10 11 10 9 9 8 10 8 8 8 9 9 8 9 10 8 6 5 7 6 6 7 7 7 8 8 7 8 8 8 8 8 8 8 7 7 7 7 7 7 7 7 7 8 8 8 7 8 8 5 2 6 8 10 8 2 1 2 7 3 6 1 3 5 6 6 7 7 8 9 10 8 8 7 8 8 8 7 7
8 8 7 8 11 10 10 10 9 8 8 8 10 10 9 9 9 8 8 8 8 7 7 6 5 6 7 7 7 7 8 8 7 7 7 7 8 8 8 8 7 7 8 8 8 7 6 6 7 8 8 8 8 9 8 6 8 6 8 10 10 8 4 3 2 6 6 8 7 2 4 6 6 8 8 10 10 9 9 8 9 9 8 8 8
8 9 9 8 8 8 8 8 9 8 8 9 10 9 9 8 9 8 8 7 6 5 4 5 6 5 6 7 7 7 8 9 9 8 6 6 7 7 7 7 8 8 7 7 6 6 8 8 8 8 9 8 8 8 7 7 7 8 5 7 8 9 7 6 4 4 5 5 12 9 8 0 3 7 8 8 9 9 10 10 9 9 8 9 9
7 7 6 6 6 6 8 9 9 8 8 9 10 10 9 8 8 8 9 7 5 5 4 5 5 5 6 5 6 6 6 8 8 9 8 8 7 6 6 7 7 7 7 7 7 7 7 7 8 8 8 9 6 7 9 8 7 6 7 5 7 5 6 4 4 5 5 7 12 10 8 6 7 6 6 7 11 9 9 9 9 9 9 10 10
5 6 7 7 6 7 7 9 8 7 8 10 10 11 10 9 9 9 10 9 8 6 6 7 7 7 8 7 7 7 6 6 7 8 8 8 8 7 7 6 6 6 7 7 7 7 7 6 6 6 7 8 7 7 8 8 7 7 7 7 8 8 9 9 8 6 8 7 5 10 11 9 11 13 7 8 8 9 9 8 9 10 11 11 10
Wind_Direction
121 111 110 108 105 100 95 91 89 88 84 86 81 78 84 82 80 71 70 74 75 77 77 79 77 72 70 69 69 73 68 66 69 72 69 70 72 69 64 65 64 64 65 66 69 72 73 71 69 68 66 66 66 67 67 67 68 69 70 72 73 73 72 71 70 68 66 64 65 65 69 70 73 79 77 74 74 70 69 68 66 61 62 65 66
122 119 117 115 109 103 100 95 92 94 96 88 87 82 74 80 70 77 79 80 79 81 82 79 75 73 72 70 70 68 74 76 73 74 74 72 74 74 72 71 70 68 68 67 69 71 70 71 72 70 70 69 68 71 72 72 73 73 73 73 73 76 76 76 75 73 70 68 66 64 65 68 70 70 77 76 76 73 72 70 70 69 65 67 66
122 119 117 113 107 107 104 101 99 94 84 83 87 87 86 73 78 86 87 86 82 84 84 80 78 76 78 77 72 72 71 72 73 72 72 69 69 72 72 69 69 67 69 70 69 69 71 71 72 71 71 71 72 72 72 72 68 69 71 71 73 75 76 75 75 74 70 68 65 61 57 62 66 75 77 78 78 75 73 72 71 72 71 71 71
119 116 117 111 110 106 102 100 95 94 93 88 85 94 102 88 78 82 90 89 87 87 84 80 81 81 78 73 76 72 62 59 59 70 71 69 68 75 74 71 72 73 73 74 72 71 72 74 74 74 73 75 76 74 73 75 69 65 64 62 62 67 71 73 73 74 75 71 66 64 57 49 56 65 72 73 72 72 70 69 70 70 70 67 69
116 120 123 118 111 111 110 106 103 98 96 96 90 79 71 73 73 89 87 86 92 91 82 84 83 82 77 74 70 67 68 67 66 64 73 77 77 79 80 76 71 72 75 77 78 78 79 77 76 77 78 79 79 77 76 77 75 67 64 62 58 63 74 73 71 70 68 65 62 62 58 60 60 60 73 72 73 72 71 70 70 69 67 67 67
122 129 131 123 116 118 116 111 110 107 105 100 95 91 88 87 85 95 94 89 90 91 85 84 84 77 75 75 73 71 73 76 74 77 75 75 77 77 78 80 80 78 76 76 78 80 81 81 80 80 82 82 82 80 78 75 70 68 67 64 65 71 74 70 70 71 72 69 63 63 62 58 68 66 71 71 72 73 73 71 71 70 69 68 70
133 139 122 119 122 122 119 114 108 102 100 101 98 89 85 89 85 93 100 96 87 95 91 88 87 85 82 76 75 75 73 74 72 69 70 71 72 75 76 78 81 78 76 76 77 79 79 80 81 81 81 81 79 78 75 73 71 68 63 60 61 68 75 75 70 71 71 70 65 62 59 59 53 61 66 69 67 67 68 69 67 66 61 49 56
130 122 124 118 119 127 119 118 114 110 105 103 102 97 95 84 80 85 86 106 102 94 89 92 93 89 81 77 73 76 77 73 73 71 70 74 74 70 72 70 73 77 77 75 75 76 77 79 81 81 81 81 80 77 76 70 70 69 65 62 65 73 73 70 63 59 57 60 62 62 63 58 54 59 65 66 65 63 62 66 67 65 62 57 53
126 126 116 116 126 126 123 122 120 115 110 105 104 103 94 89 83 89 94 105 102 88 93 88 87 91 87 82 84 80 77 76 77 77 76 75 77 79 78 78 79 79 77 78 79 79 80 80 79 81 83 82 80 76 70 67 66 62 57 56 57 67 72 75 73 68 63 61 65 67 64 61 60 60 66 67 67 67 64 59 63 66 65 64 64
131 114 112 120 127 130 127 124 123 118 114 113 107 106 103 88 84 90 92 99 99 87 84 96 96 90 90 88 86 85 81 75 75 77 78 74 73 75 77 77 74 76 81 81 80 82 81 80 81 82 83 84 80 76 68 67 66 64 61 56 62 62 61 67 74 79 81 77 71 69 69 68 63 67 70 70 70 70 68 65 71 72 70 67 67
126 118 114 121 131 131 130 124 123 122 118 116 115 105 98 94 89 91 94 97 103 92 90 106 95 91 94 92 87 80 76 83 81 81 80 79 78 77 75 76 77 78 79 81 81 81 82 81 82 84 84 85 79 71 67 67 65 60 53 51 60 68 69 69 64 61 58 59 59 60 63 64 70 75 75 74 73 72 70 70 68 66 65 66 66
114 110 115 124 131 130 124 126 126 123 121 117 114 107 101 95 92 92 97 97 101 94 80 94 101 97 93 93 92 93 87 82 88 86 82 82 82 81 80 79 82 81 79 80 81 82 83 84 84 85 87 85 79 71 69 63 60 58 64 64 63 67 69 68 72 74 76 71 66 60 55 55 57 69 74 74 72 70 67 66 66 66 65 64 65
106 108 115 128 128 127 126 128 128 126 123 118 114 112 101 98 101 98 97 97 102 97 86 89 100 101 97 95 95 89 92 92 94 88 84 83 86 86 84 82 82 83 82 82 81 83 83 83 87 91 91 87 81 73 67 64 59 52 41 43 63 75 77 76 71 66 65 66 67 65 63 61 66 75 75 77 76 73 72 68 65 66 66 66 65
108 119 126 133 130 130 129 127 129 128 124 122 118 114 107 100 97 101 105 102 104 103 97 93 97 99 101 98 95 89 88 93 89 91 90 86 83 83 83 82 82 84 86 86 84 82 83 86 92 94 91 85 80 73 66 60 54 47 41 38 21 29 70 70 73 75 74 71 66 66 63 65 79 81 78 76 73 70 68 67 67 65 64 65 66
123 133 131 127 133 131 129 127 128 126 124 123 120 115 110 106 103 98 107 105 107 109 105 99 100 102 102 100 94 93 79 62 87 93 91 85 82 82 82 82 82 80 81 83 85 84 84 87 91 91 88 86 84 75 64 56 53 47 44 38 62 72 74 79 72 72 77 77 76 79 88 90 76 72 72 70 71 71 72 71 69 65 65 70 70
125 129 126 137 139 131 132 135 129 126 122 119 118 115 111 111 111 102 95 116 114 114 109 107 105 102 101 99 90 75 64 66 74 88 84 85 84 82 82 82 83 81 80 81 84 85 86 91 94 89 84 86 86 79 70 63 55 49 40 53 66 80 82 72 77 84 85 91 84 70 63 75 80 79 74 74 72 71 69 67 66 71 73 72 73
123 136 132 141 138 147 137 144 137 128 124 119 116 115 111 110 111 106 89 84 116 114 116 112 108 102 89 77 72 66 66 69 80 85 84 87 85 80 77 77 80 81 81 82 82 85 89 92 90 84 82 84 83 77 71 64 63 49 53 58 67 68 78 88 78 73 72 66 62 56 60 75 82 75 77 78 74 78 83 84 78 74 72 74 74
134 143 140 142 146 149 147 143 140 135 127 122 117 116 113 106 98 91 86 83 92 113 114 106 100 90 83 75 68 64 68 70 78 85 80 79 79 76 78 74 78 81 79 78 80 82 85 89 88 84 83 85 79 78 72 64 58 61 66 68 69 74 85 86 86 87 85 75 74 78 93 81 80 92 82 72 78 81 75 67 71 76 73 76 76
146 163 149 149 158 149 148 142 157 142 138 132 127 122 115 105 99 96 95 84 84 93 94 96 98 94 92 88 84 83 80 82 81 85 92 86 83 76 75 75 79 84 80 79 80 80 83 87 85 82 81 81 75 74 70 62 50 62 57 56 53 55 78 79 91 99 94 94 89 88 75 95 99 73 78 80 76 77 80 76 73 77 79 79 81
166 176 154 164 158 146 143 152 165 150 156 139 135 125 118 111 106 105 102 100 99 99 102 100 101 101 102 105 103 94 92 89 86 76 74 79 82 84 80 80 80 87 83 82 80 83 86 86 80 78 79 75 66 60 45 41 28 28 25 17 8 349 49 82 74 78 96 103 113 94 105 86 85 96 82 85 83 81 84 79 73 73 78 80 82
178 187 163 165 149 143 150 157 172 154 157 140 137 131 121 112 105 105 109 110 109 108 108 106 103 110 116 131 134 125 117 119 98 83 77 82 85 81 77 73 69 73 86 86 82 85 86 82 81 83 85 82 67 51 38 22 13 11 0 359 346 28 57 58 53 66 86 91 84 102 94 98 96 91 97 85 80 88 81 74 78 84 88 90 86
174 184 184 169 161 153 158 168 160 151 156 141 137 132 142 131 123 123 117 120 121 125 127 133 131 141 152 163 186 142 151 136 114 109 90 87 86 87 84 83 78 70 66 66 73 78 78 76 79 85 99 109 104 74 31 4 349 345 338 336 340 70 66 74 67 71 79 71 95 114 119 117 128 117 95 96 91 90 81 80 79 82 83 86 88
176 175 189 180 177 156 163 172 148 153 146 137 129 139 156 144 146 139 133 138 152 157 155 155 158 158 191 198 209 145 93 82 94 96 97 89 97 98 94 92 86 85 86 83 78 71 66 63 53 61 95 116 50 133 99 342 311 316 312 306 349 92 98 94 97 98 87 94 67 60 111 107 73 83 91 102 99 101 94 93 84 86 93 90 94
172 180 179 185 178 162 174 167 152 157 147 143 136 149 174 149 158 144 146 151 173 191 157 187 155 175 200 214 132 91 92 99 109 110 104 99 91 96 101 100 102 101 101 89 87 86 84 80 45 345 302 285 280 173 142 200 295 300 305 38 92 110 118 137 138 114 96 98 62 24 133 116 107 115 117 100 98 101 93 86 84 94 90 94 99
171 176 173 188 177 169 182 167 149 154 149 146 150 162 183 156 160 152 160 159 181 200 167 191 153 185 210 104 106 106 117 127 135 136 127 125 122 126 128 127 134 140 138 130 125 144 158 112 163 259 261 238 258 202 158 175 215 267 287 17 111 105 111 94 100 100 93 86 67 346 157 121 118 138 110 134 123 107 115 117 112 99 101 106 102
171 177 183 184 179 179 173 171 157 153 156 154 162 170 173 155 152 156 166 157 185 180 167 161 132 154 191 124 109 132 130 148 158 174 149 147 152 168 170 163 160 168 200 166 145 158 144 158 179 206 245 235 221 190 175 169 206 240 263 332 78 115 93 90 105 108 104 101 64 142 151 234 98 107 111 109 102 115 117 115 106 114 110 108 82
173 183 179 186 177 184 172 170 167 160 168 159 166 159 160 149 148 154 166 157 164 180 160 157 150 175 175 133 118 177 149 157 172 200 172 157 171 181 181 169 165 164 197 179 146 163 156 165 189 220 234 236 255 170 143 210 210 225 281 57 33 13 50 91 118 121 118 115 113 173 174 267 173 129 152 146 149 130 121 114 126 128 119 119 132
162 179 180 184 175 183 170 168 176 167 177 169 150 158 156 148 154 149 163 150 153 183 163 170 156 174 160 147 162 174 166 155 178 185 191 155 182 175 162 144 153 175 198 143 132 139 173 169 191 226 215 79 44 19 43 354 346 28 80 60 52 345 38 12 150 130 130 138 144 188 171 21 105 172 165 169 165 159 149 141 136 147 136 143 117
165 177 179 180 171 176 168 175 180 178 173 174 162 158 151 143 145 151 169 135 161 175 177 165 147 149 175 155 187 163 172 154 160 173 185 171 171 146 136 143 155 173 118 107 124 144 236 203 201 161 92 95 31 330 297 257 334 11 100 77 46 349 359 13 93 134 130 141 155 181 162 92 244 240 202 201 175 145 156 161 151 148 142 141 136
171 171 176 187 168 170 176 181 181 183 175 176 172 157 152 152 151 160 167 150 167 179 165 145 153 155 175 171 186 171 169 154 163 168 168 192 152 150 140 152 165 147 131 147 148 154 204 213 159 157 170 207 187 203 203 201 253 61 80 101 108 297 13 24 15 79 146 147 159 178 175 128 277 235 216 241 193 161 165 179 171 174 168 157 158
167 176 180 189 171 170 184 182 186 178 175 178 171 161 159 155 156 166 148 169 175 175 166 164 191 190 162 172 183 224 181 162 154 174 167 166 147 145 175 174 167 168 158 175 160 169 189 184 172 187 205 199 188 189 171 183 112 69 67 85 54 30 26 22 34 32 36 164 165 177 191 149 287 296 279 217 195 206 188 189 184 174 174 171 179
172 180 177 181 172 174 181 186 180 177 180 178 172 167 169 151 159 167 169 169 185 193 170 175 193 195 177 173 186 207 216 171 155 167 165 159 156 165 193 182 181 187 165 175 158 173 181 180 170 175 183 164 193 113 170 144 114 100 87 73 41 41 28 5 22 44 3 345 172 174 188 175 207 273 292 283 189 212 195 200 202 189 192 194 203
183 174 170 174 182 177 179 184 182 179 186 185 175 173 168 152 165 174 179 170 186 197 179 182 190 201 185 170 184 189 215 192 163 165 169 165 167 174 189 195 186 180 169 169 153 163 164 134 126 83 52 138 123 146 141 92 116 102 96 57 42 44 20 39 10 39 4 327 330 175 175 197 196 238 256 274 296 278 220 202 214 199 206 207 190
187 179 168 176 177 179 177 180 188 181 184 193 175 182 180 162 164 175 177 173 185 198 188 179 182 193 189 167 178 190 195 203 175 161 167 171 178 180 184 195 182 173 167 151 149 155 170 144 144 121 196 161 156 153 144 128 111 109 101 89 65 30 12 355 6 357 351 313 327 325 231 203 192 202 232 252 252 270 269 231 226 211 220 217 215
181 181 180 174 170 171 174 185 182 181 177 189 191 186 185 174 165 174 180 177 189 199 197 180 176 188 181 173 178 194 192 194 182 157 165 175 185 187 185 190 176 166 151 151 148 172 171 169 147 160 194 199 207 170 159 186 149 153 155 139 119 80 47 334 341 357 360 342 339 338 338 305 209 187 205 218 230 245 258 306 274 217 205 211 226
181 181 180 171 172 171 172 178 175 176 176 185 196 189 186 185 173 175 180 178 187 195 196 183 174 183 179 173 181 192 188 188 186 161 169 184 186 186 187 178 173 156 154 151 156 176 190 172 174 163 180 194 198 215 173 184 154 137 93 69 60 40 12 19 11 352 345 331 315 334 330 318 323 250 212 210 213 220 231 246 263 272 213 216 212
176 177 177 175 175 169 167 174 182 192 175 185 190 193 197 190 192 186 179 172 181 189 188 179 179 183 187 172 177 186 190 188 185 176 168 185 188 178 182 176 168 156 156 157 173 190 179 176 181 182 174 185 192 197 189 137 114 97 81 77 59 42 8 14 12 350 334 312 295 308 303 306 316 325 321 299 259 224 213 220 241 247 273 257 234
178 179 180 181 181 170 171 177 179 191 184 178 183 187 197 193 199 194 156 167 176 184 184 184 189 187 191 183 173 185 193 189 186 181 178 180 183 177 178 172 165 157 157 158 179 199 177 164 177 189 186 169 194 180 168 108 118 122 102 92 10 13 4 339 354 333 325 305 309 303 313 323 312 313 312 312 324 339 280 225 223 239 247 253 249
179 181 177 180 179 168 169 179 175 180 180 171 180 186 197 203 205 190 162 168 177 181 181 192 197 189 197 199 193 187 187 186 189 182 182 182 182 182 177 170 159 156 157 163 176 180 149 152 162 150 81 68 88 87 137 128 119 118 126 94 143 226 334 5 326 302 266 238 259 279 312 289 297 292 297 299 311 316 294 254 229 224 225 237 244
176 182 176 173 180 170 166 173 183 180 179 168 167 177 179 193 202 214 196 179 175 176 182 186 186 195 200 198 187 177 178 178 189 189 183 185 176 177 152 149 156 159 162 167 179 177 177 169 184 163 153 101 75 103 111 112 78 74 215 252 234 252 247 239 259 259 266 258 252 258 258 271 278 278 280 288 290 297 294 288 257 235 223 230 243
178 178 176 176 180 181 165 179 184 181 186 188 183 175 180 188 203 208 204 183 172 171 184 192 191 194 197 193 176 174 173 178 188 188 188 183 180 158 147 158 161 168 171 190 181 174 177 178 180 168 167 177 202 134 112 119 120 292 218 260 268 229 230 226 239 238 239 241 236 237 238 251 255 261 259 276 278 283 288 291 294 286 268 227 234
191 184 185 181 180 182 182 179 178 185 188 190 188 189 191 193 191 200 186 185 175 173 184 190 197 198 201 204 195 187 185 184 188 187 188 185 186 171 168 174 169 180 186 169 164 164 164 175 161 189 205 186 212 169 168 118 229 223 258 297 271 245 220 220 232 233 232 230 221 226 232 234 242 240 246 258 261 261 264 274 284 290 289 272 235
184 187 189 181 183 188 190 181 180 184 188 184 185 194 192 190 188 192 183 193 207 184 174 175 182 190 199 203 201 203 201 201 190 191 194 196 196 186 184 173 178 169 169 182 178 184 185 187 183 189 203 221 203 169 180 192 215 125 104 12 284 314 347 287 244 243 229 227 211 224 225 230 235 230 235 247 248 248 251 252 266 268 272 271 258
184 190 188 189 188 190 189 184 182 185 188 189 188 188 186 187 185 172 177 177 199 189 165 174 176 182 198 201 206 201 202 203 189 184 192 197 198 196 181 175 181 178 184 187 190 199 189 190 191 202 179 195 207 222 197 197 191 129 273 213 247 112 305 253 241 245 204 220 209 225 216 229 231 233 221 236 240 237 241 246 251 254 256 261 264
189 189 188 189 191 192 191 186 184 186 188 189 186 171 159 152 145 129 158 184 172 205 189 180 179 182 187 195 202 195 195 195 193 187 190 199 199 195 185 181 180 185 184 195 199 202 197 193 189 189 194 206 216 211 204 194 212 212 199 103 318 286 227 266 71 271 172 205 229 225 222 225 229 228 223 243 243 241 240 242 244 245 248 252 257
194 193 190 191 188 190 189 186 185 184 186 188 184 171 170 167 160 151 162 175 191 195 207 205 181 184 192 174 180 190 197 198 199 202 196 196 202 199 193 186 187 187 194 201 204 196 196 192 194 198 207 210 217 213 212 203 216 219 233 236 233 265 268 265 64 286 327 224 244 212 222 221 229 227 227 239 239 239 228 243 240 243 242 243 246
199 186 187 190 190 187 188 186 186 184 181 179 179 172 172 180 184 184 181 182 188 210 210 202 200 184 163 166 179 186 196 201 207 208 206 201 202 201 199 197 193 191 191 198 204 203 198 200 193 200 209 205 206 234 224 198 205 245 238 245 263 196 133 277 256 335 297 308 242 237 234 223 232 232 234 235 237 238 235 229 240 240 242 241 244
188 183 185 183 187 188 184 185 182 179 181 174 178 180 177 179 182 187 188 191 194 195 190 198 181 166 167 168 173 186 193 194 199 205 202 199 200 200 197 196 196 196 187 201 207 204 200 199 199 208 212 209 206 218 229 185 191 219 200 230 240 249 199 201 203 239 275 289 275 251 229 231 222 235 231 239 238 234 242 230 232 235 237 239 237
177 183 188 185 182 180 179 178 180 174 177 175 176 182 179 178 178 175 187 203 189 195 194 187 183 177 174 180 187 189 189 196 194 193 201 196 197 203 198 199 200 201 192 202 206 202 206 203 201 205 209 212 209 216 222 222 203 223 156 221 228 237 234 232 193 142 227 267 272 261 261 59 276 249 233 234 241 235 234 239 235 234 235 239 233
176 172 174 171 174 171 176 176 182 172 172 172 173 179 179 173 177 179 185 192 189 196 186 197 193 187 196 194 189 200 191 189 194 194 193 199 197 199 203 200 198 197 192 202 199 206 211 212 208 207 209 216 210 210 221 227 224 223 203 186 202 225 244 240 210 202 243 216 257 263 267 266 268 245 207 224 237 232 235 237 237 233 235 238 238
154 160 169 172 174 175 174 179 181 168 166 170 170 176 178 181 185 185 186 188 192 192 201 204 190 190 197 201 196 201 200 182 187 193 187 184 192 191 200 201 195 193 194 195 203 201 206 212 215 216 214 213 214 215 222 230 227 229 223 200 209 203 213 217 216 202 217 237 254 258 260 249 257 273 237 211 224 228 225 225 229 234 234 236 238